Showing default

METEOR 3-1, 16191

Orbit data source: Space-Track

METEOR 3-1, 16191 is a payload satellite owned by GMS (CIS) in LEO that was launched on Thu, 24 Oct 1985 UTC via a TSIKLON-3 launch vehicle from the Plesetsk Missile And Space Complex (PKMTR). Payload-class satellites include a variety of spacecraft equipped with specific instruments for various scientific and technological missions. These include communications satellites like Starlink; space stations such as the ISS; scientific satellites like the Hubble; Earth observation satellites from companies like Planet Labs, Umbra, and HawkEye 360; GPS; miniature CubeSats for education and research; and military/defense satellites.

Loading next visibility...
Identifier
16191, 1985-100A
Orbit
LEO
Country
Flag of CISCIS
Related business
Manufacturer
VNIIEM
Mission
Spacecraft
Bus & Motor
METEOR-3, Unknown motor
Mass
1,750 kg wet, 1,750 kg dry
Launch date (UTC)
1985-10-24 (41 years ago)
Launch vehicle
TSIKLON-3
Launch site
Plesetsk Missile And Space Complex (PKMTR)
Object type
Payload
Rocket body
Debris
Shape & HBR
Unknown
Radar Cross Section
Large (>1 m²)

Expand to show TLE details & history
Last TLE update: 2 days ago

TLE from 2 days ago
0 METEOR 3-1
1 16191U 85100A   26171.35943196 -.00000028  00000-0 -10513-3 0  9994
2 16191  82.5483  33.7094 0019741 352.9204 180.4856 13.17318915954754
Epoch: 2026-06-20T08:37Z
TLE epoch observation values (Epoch: 2026-06-20T08:37:34.921Z)
Latitude
6.46673°
Longitude
174.89355°
Altitude
1,212.133 km
Speed
7.241 km/s
True Right ascension
14h 11m 27s
True Declination
6° 25' 50"
Sunlit
Object was in daylight at epoch
Visualization orbit readout
Latitude
Unknown
Longitude
Unknown
Altitude
Unknown
Speed
Unknown
Apparent Right ascension
Unknown
Apparent Declination
Unknown
Sunlit
N/A
Visualization observer readout
Local Sidereal Time
23:07:27
Azimuth
Unknown
Elevation
Unknown
Doppler factor
Unknown
Orbital elements
Apogee altitude
1,207.167 km
Perigee altitude
1,177.278 km
Semi-major axis
7,570.359 km
Eccentricity
0.00197
Inclination
82.5483°
RAAN
33.7094°
Arg. of periapsis
352.9204°
True anomaly
180.48369°
Mean anomaly
180.4856°
Eccentric anomaly
180.48464°
Mean motion
3.2951 °/min
Orbital period
109.25 mins
BSTAR
-0.00010513
Loading maneuver chart data...
Computing Atmospheric mass density...
Loading historical data...
Loading historical data...
Loading historical data...
Loading historical data...
Loading historical data...
Loading historical data...
Loading historical data...

Documentation

Showing up to 5 results
|